THOR ABLESTAR DEB, 403

Orbit data source: Space-Track

THOR ABLESTAR DEB, 403 is space debris in LEO originally from a launch on Thu, 29 Jun 1961 UTC launched from the Air Force Eastern Test Range (AFETR). Debris objects in space refer to the collection of defunct objects orbiting the Earth. Examples of debris include non-operational satellites, rocket bodies, and fragments generated from explosions, collisions, or faulty payload assembly.

Loading next visibility...
Identifier
403, 1961-015EC
Orbit
LEO
Country
Flag of USUS
Related business
Manufacturer
Unknown
Mission
Spacecraft
Bus & Motor
Unknown
Mass
Unknown
Launch date (UTC)
1961-06-29 (65 years ago)
Launch vehicle
Unknown
Launch site
Air Force Eastern Test Range (AFETR)
Object type
Payload
Rocket body
Debris
Shape & HBR
Unknown shape, 0.2 m
Radar Cross Section
Small (<0.1 m²)

Expand to show TLE details & history
Last TLE update: 1 day ago

TLE from 1 day ago
0 THOR ABLESTAR DEB
1 00403U 61015EC  26034.04145207  .00000034  00000-0  10256-3 0  9992
2 00403  66.8393 247.9614 0027737 271.3162 241.7293 13.81210886252628
Epoch: 2026-02-03T00:59Z
TLE epoch observation values (Epoch: 2026-02-03T00:59:41.458Z)
Latitude
24.92396°
Longitude
-91.59523°
Altitude
971.459 km
Speed
7.364 km/s
True Right ascension
03h 46m 13s
True Declination
24° 47' 48"
Sunlit
Object was in daylight at epoch
Visualization orbit readout
Latitude
Unknown
Longitude
Unknown
Altitude
Unknown
Speed
Unknown
Apparent Right ascension
Unknown
Apparent Declination
Unknown
Sunlit
N/A
Visualization observer readout
Local Sidereal Time
04:46:29
Azimuth
Unknown
Elevation
Unknown
Doppler factor
Unknown
Orbital elements
Apogee altitude
978.34 km
Perigee altitude
937.643 km
Semi-major axis
7,336.128 km
Eccentricity
0.00277
Inclination
66.8393°
RAAN
247.9614°
Arg. of periapsis
271.3162°
True anomaly
241.44983°
Mean anomaly
241.7293°
Eccentric anomaly
241.58952°
Mean motion
3.45416 °/min
Orbital period
104.22 mins
BSTAR
0.00010256
Loading maneuver chart data...
Computing Atmospheric mass density...

Documentation

Showing up to 5 results
|